Time,TemperatureF,DewpointF,PressureIn,WindDirection,WindDirectionDegrees,WindSpeedMPH,WindSpeedGustMPH,Humidity,HourlyPrecipIn,Conditions,Clouds,dailyrainin,SoftwareType,DateUTC
2013-07-22 00:11:00,58.9,55.0,29.85,ESE,113,0.0,-999.0,88,-99.99,,,0.00,weatherlink.com 1.10,2013-07-22 07:11:00,
2013-07-22 00:26:00,58.4,55.0,29.85,NE,44,1.0,-999.0,87,-99.99,,,0.00,weatherlink.com 1.10,2013-07-22 07:26:00,
2013-07-22 00:41:00,57.7,54.0,29.85,East,80,2.0,-999.0,88,-99.99,,,0.00,weatherlink.com 1.10,2013-07-22 07:41:00,
2013-07-22 00:56:00,57.7,55.0,29.85,ENE,71,0.0,-999.0,90,-99.99,,,0.00,weatherlink.com 1.10,2013-07-22 07:56:00,
2013-07-22 01:11:00,58.2,55.0,29.86,NE,48,0.0,-999.0,90,-99.99,,,0.00,weatherlink.com 1.10,2013-07-22 08:11:00,
2013-07-22 01:26:00,58.7,56.0,29.86,SSE,149,1.0,-999.0,89,-99.99,,,0.00,weatherlink.com 1.10,2013-07-22 08:26:00,
2013-07-22 01:41:00,58.6,55.0,29.86,NE,53,0.0,-999.0,89,-99.99,,,0.00,weatherlink.com 1.10,2013-07-22 08:41:00,
2013-07-22 01:56:00,58.4,55.0,29.87,West,278,1.0,-999.0,88,-99.99,,,0.00,weatherlink.com 1.10,2013-07-22 08:56:00,
2013-07-22 02:11:00,57.9,54.0,29.87,NE,45,2.0,-999.0,88,-99.99,,,0.00,weatherlink.com 1.10,2013-07-22 09:11:00,
2013-07-22 02:26:00,57.8,55.0,29.87,East,91,2.0,-999.0,90,-99.99,,,0.00,weatherlink.com 1.10,2013-07-22 09:26:00,
2013-07-22 02:41:00,58.0,55.0,29.86,NNE,17,0.0,-999.0,90,-99.99,,,0.00,weatherlink.com 1.10,2013-07-22 09:41:00,
2013-07-22 02:56:00,58.2,56.0,29.86,East,96,1.0,-999.0,91,-99.99,,,0.00,weatherlink.com 1.10,2013-07-22 09:56:00,
2013-07-22 03:11:00,58.3,56.0,29.85,ESE,120,3.0,-999.0,90,-99.99,,,0.00,weatherlink.com 1.10,2013-07-22 10:11:00,
2013-07-22 03:26:00,58.3,56.0,29.86,East,99,0.0,-999.0,90,-99.99,,,0.00,weatherlink.com 1.10,2013-07-22 10:26:00,
2013-07-22 03:41:00,58.4,56.0,29.85,ENE,65,0.0,-999.0,90,-99.99,,,0.00,weatherlink.com 1.10,2013-07-22 10:41:00,
2013-07-22 03:56:00,58.4,56.0,29.85,SE,142,0.0,-999.0,90,-99.99,,,0.00,weatherlink.com 1.10,2013-07-22 10:56:00,
2013-07-22 04:11:00,58.5,56.0,29.86,ENE,67,0.0,-999.0,90,-99.99,,,0.00,weatherlink.com 1.10,2013-07-22 11:11:00,
2013-07-22 04:26:00,58.4,56.0,29.86,SSE,151,1.0,-999.0,90,-99.99,,,0.00,weatherlink.com 1.10,2013-07-22 11:26:00,
2013-07-22 04:41:00,58.3,56.0,29.86,SSE,163,0.0,-999.0,90,-99.99,,,0.00,weatherlink.com 1.10,2013-07-22 11:41:00,
2013-07-22 04:56:00,58.4,56.0,29.86,SSE,157,0.0,-999.0,91,-99.99,,,0.00,weatherlink.com 1.10,2013-07-22 11:56:00,
2013-07-22 05:11:00,58.6,56.0,29.86,East,83,2.0,-999.0,90,-99.99,,,0.00,weatherlink.com 1.10,2013-07-22 12:11:00,
2013-07-22 05:26:00,58.7,56.0,29.87,SE,144,0.0,-999.0,90,-99.99,,,0.00,weatherlink.com 1.10,2013-07-22 12:26:00,
2013-07-22 05:41:00,58.7,56.0,29.88,SSW,208,1.0,-999.0,91,-99.99,,,0.00,weatherlink.com 1.10,2013-07-22 12:41:00,
2013-07-22 05:56:00,58.8,56.0,29.87,North,355,0.0,-999.0,90,-99.99,,,0.00,weatherlink.com 1.10,2013-07-22 12:56:00,
2013-07-22 06:11:00,58.9,56.0,29.89,SSW,212,1.0,-999.0,91,-99.99,,,0.00,weatherlink.com 1.10,2013-07-22 13:11:00,
2013-07-22 06:26:00,58.9,56.0,29.89,ESE,107,0.0,-999.0,90,-99.99,,,0.00,weatherlink.com 1.10,2013-07-22 13:26:00,
2013-07-22 06:41:00,58.9,56.0,29.90,ENE,67,0.0,-999.0,91,-99.99,,,0.00,weatherlink.com 1.10,2013-07-22 13:41:00,
2013-07-22 06:56:00,59.0,56.0,29.90,South,183,2.0,-999.0,90,-99.99,,,0.00,weatherlink.com 1.10,2013-07-22 13:56:00,
2013-07-22 07:11:00,59.0,56.0,29.90,SE,145,1.0,-999.0,90,-99.99,,,0.00,weatherlink.com 1.10,2013-07-22 14:11:00,
2013-07-22 07:26:00,59.2,57.0,29.91,East,96,0.0,-999.0,91,-99.99,,,0.00,weatherlink.com 1.10,2013-07-22 14:26:00,
2013-07-22 07:41:00,59.4,57.0,29.91,East,92,0.0,-999.0,91,-99.99,,,0.00,weatherlink.com 1.10,2013-07-22 14:41:00,
2013-07-22 07:56:00,59.5,57.0,29.91,ENE,69,0.0,-999.0,91,-99.99,,,0.00,weatherlink.com 1.10,2013-07-22 14:56:00,
2013-07-22 08:11:00,60.0,57.0,29.91,NNE,26,0.0,-999.0,91,-99.99,,,0.00,weatherlink.com 1.10,2013-07-22 15:11:00,
2013-07-22 08:26:00,60.5,57.0,29.91,SSE,157,0.0,-999.0,89,-99.99,,,0.00,weatherlink.com 1.10,2013-07-22 15:26:00,
2013-07-22 08:41:00,60.8,57.0,29.91,WNW,286,10.0,-999.0,88,-99.99,,,0.00,weatherlink.com 1.10,2013-07-22 15:41:00,
2013-07-22 08:56:00,61.6,57.0,29.91,ESE,106,0.0,-999.0,86,-99.99,,,0.00,weatherlink.com 1.10,2013-07-22 15:56:00,
2013-07-22 09:11:00,63.3,59.0,29.91,SE,143,0.0,-999.0,85,-99.99,,,0.00,weatherlink.com 1.10,2013-07-22 16:11:00,
2013-07-22 09:27:00,65.2,59.0,29.91,East,86,0.0,-999.0,80,-99.99,,,0.00,weatherlink.com 1.10,2013-07-22 16:27:00,
2013-07-22 09:42:00,66.2,60.0,29.91,ENE,63,1.0,-999.0,79,-99.99,,,0.00,weatherlink.com 1.10,2013-07-22 16:42:00,
2013-07-22 09:57:00,67.0,60.0,29.91,East,97,0.0,-999.0,78,-99.99,,,0.00,weatherlink.com 1.10,2013-07-22 16:57:00,
2013-07-22 10:12:00,68.2,61.0,29.91,ESE,119,0.0,-999.0,77,-99.99,,,0.00,weatherlink.com 1.10,2013-07-22 17:12:00,
2013-07-22 10:27:00,69.7,61.0,29.91,SE,128,3.0,-999.0,73,-99.99,,,0.00,weatherlink.com 1.10,2013-07-22 17:27:00,
2013-07-22 10:42:00,70.6,61.0,29.91,SSE,157,2.0,-999.0,71,-99.99,,,0.00,weatherlink.com 1.10,2013-07-22 17:42:00,
2013-07-22 10:57:00,72.2,61.0,29.91,SSE,160,3.0,-999.0,68,-99.99,,,0.00,weatherlink.com 1.10,2013-07-22 17:57:00,
2013-07-22 11:27:00,72.1,61.0,29.91,SSE,167,2.0,-999.0,68,-99.99,,,0.00,weatherlink.com 1.10,2013-07-22 18:27:00,
2013-07-22 11:42:00,73.9,62.0,29.90,SE,144,1.0,-999.0,66,-99.99,,,0.00,weatherlink.com 1.10,2013-07-22 18:42:00,
2013-07-22 12:12:00,73.7,62.0,29.90,SE,136,0.0,-999.0,66,-99.99,,,0.00,weatherlink.com 1.10,2013-07-22 19:12:00,
2013-07-22 12:27:00,74.3,61.0,29.89,SE,131,1.0,-999.0,64,-99.99,,,0.00,weatherlink.com 1.10,2013-07-22 19:27:00,
2013-07-22 12:42:00,76.3,62.0,29.90,ESE,122,2.0,-999.0,62,-99.99,,,0.00,weatherlink.com 1.10,2013-07-22 19:42:00,
2013-07-22 12:57:00,78.1,63.0,29.90,South,190,3.0,-999.0,61,-99.99,,,0.00,weatherlink.com 1.10,2013-07-22 19:57:00,
2013-07-22 13:27:00,77.6,61.0,29.91,SSE,158,1.0,-999.0,57,-99.99,,,0.00,weatherlink.com 1.10,2013-07-22 20:27:00,
2013-07-22 13:42:00,78.6,62.0,29.91,ESE,111,2.0,-999.0,57,-99.99,,,0.00,weatherlink.com 1.10,2013-07-22 20:42:00,
2013-07-22 13:57:00,78.2,63.0,29.91,SSW,199,5.0,-999.0,59,-99.99,,,0.00,weatherlink.com 1.10,2013-07-22 20:57:00,
2013-07-22 14:12:00,77.7,62.0,29.91,South,171,1.0,-999.0,58,-99.99,,,0.00,weatherlink.com 1.10,2013-07-22 21:12:00,
2013-07-22 14:27:00,75.6,62.0,29.91,SSW,199,2.0,-999.0,62,-99.99,,,0.00,weatherlink.com 1.10,2013-07-22 21:27:00,
2013-07-22 14:42:00,73.8,61.0,29.91,South,169,4.0,-999.0,64,-99.99,,,0.00,weatherlink.com 1.10,2013-07-22 21:42:00,
2013-07-22 14:57:00,72.8,61.0,29.91,NE,49,1.0,-999.0,67,-99.99,,,0.00,weatherlink.com 1.10,2013-07-22 21:57:00,
2013-07-22 15:12:00,72.0,60.0,29.90,South,185,1.0,-999.0,67,-99.99,,,0.00,weatherlink.com 1.10,2013-07-22 22:12:00,
2013-07-22 15:27:00,71.7,61.0,29.90,WNW,284,5.0,-999.0,69,-99.99,,,0.00,weatherlink.com 1.10,2013-07-22 22:27:00,
2013-07-22 15:42:00,71.1,60.0,29.90,SSE,151,2.0,-999.0,69,-99.99,,,0.00,weatherlink.com 1.10,2013-07-22 22:42:00,
2013-07-22 15:57:00,71.1,60.0,29.90,SSE,151,1.0,-999.0,68,-99.99,,,0.00,weatherlink.com 1.10,2013-07-22 22:57:00,
2013-07-22 16:12:00,71.0,60.0,29.89,West,273,2.0,-999.0,69,-99.99,,,0.00,weatherlink.com 1.10,2013-07-22 23:12:00,
2013-07-22 16:27:00,70.9,61.0,29.89,SE,138,0.0,-999.0,70,-99.99,,,0.00,weatherlink.com 1.10,2013-07-22 23:27:00,
2013-07-22 16:42:00,70.6,61.0,29.89,East,96,2.0,-999.0,71,-99.99,,,0.00,weatherlink.com 1.10,2013-07-22 23:42:00,
2013-07-22 16:57:00,70.4,61.0,29.89,East,101,0.0,-999.0,72,-99.99,,,0.00,weatherlink.com 1.10,2013-07-22 23:57:00,
2013-07-22 17:12:00,69.3,60.0,29.90,WNW,299,2.0,-999.0,72,-99.99,,,0.00,weatherlink.com 1.10,2013-07-23 00:12:00,
2013-07-22 17:27:00,68.0,59.0,29.90,ESE,123,0.0,-999.0,74,-99.99,,,0.00,weatherlink.com 1.10,2013-07-23 00:27:00,
2013-07-22 17:42:00,66.7,59.0,29.90,West,260,0.0,-999.0,75,-99.99,,,0.00,weatherlink.com 1.10,2013-07-23 00:42:00,
2013-07-22 17:57:00,65.7,58.0,29.90,South,169,1.0,-999.0,77,-99.99,,,0.00,weatherlink.com 1.10,2013-07-23 00:57:00,
2013-07-22 18:12:00,64.9,58.0,29.91,WSW,246,0.0,-999.0,78,-99.99,,,0.00,weatherlink.com 1.10,2013-07-23 01:12:00,
2013-07-22 18:27:00,63.9,57.0,29.92,South,188,0.0,-999.0,79,-99.99,,,0.00,weatherlink.com 1.10,2013-07-23 01:27:00,
2013-07-22 18:42:00,63.4,57.0,29.92,East,96,3.0,-999.0,80,-99.99,,,0.00,weatherlink.com 1.10,2013-07-23 01:42:00,
2013-07-22 18:57:00,63.4,57.0,29.92,NNE,22,0.0,-999.0,80,-99.99,,,0.00,weatherlink.com 1.10,2013-07-23 01:57:00,
2013-07-22 19:12:00,64.3,57.0,29.92,NE,48,0.0,-999.0,78,-99.99,,,0.00,weatherlink.com 1.10,2013-07-23 02:12:00,
2013-07-22 19:27:00,65.2,57.0,29.90,NE,48,0.0,-999.0,76,-99.99,,,0.00,weatherlink.com 1.10,2013-07-23 02:27:00,
2013-07-22 19:42:00,65.8,57.0,29.90,ESE,115,1.0,-999.0,74,-99.99,,,0.00,weatherlink.com 1.10,2013-07-23 02:42:00,
2013-07-22 19:57:00,66.1,58.0,29.90,ENE,75,1.0,-999.0,74,-99.99,,,0.00,weatherlink.com 1.10,2013-07-23 02:57:00,
2013-07-22 20:12:00,65.8,57.0,29.90,NNW,342,0.0,-999.0,74,-99.99,,,0.00,weatherlink.com 1.10,2013-07-23 03:12:00,
2013-07-22 20:27:00,65.9,57.0,29.89,ENE,69,2.0,-999.0,74,-99.99,,,0.00,weatherlink.com 1.10,2013-07-23 03:27:00,
2013-07-22 20:42:00,66.2,57.0,29.89,ENE,70,0.0,-999.0,72,-99.99,,,0.00,weatherlink.com 1.10,2013-07-23 03:42:00,
2013-07-22 20:57:00,66.6,57.0,29.90,SE,126,0.0,-999.0,72,-99.99,,,0.00,weatherlink.com 1.10,2013-07-23 03:57:00,
2013-07-22 21:12:00,66.0,57.0,29.90,ENE,74,1.0,-999.0,73,-99.99,,,0.00,weatherlink.com 1.10,2013-07-23 04:12:00,
2013-07-22 21:27:00,65.1,57.0,29.90,ESE,122,0.0,-999.0,74,-99.99,,,0.00,weatherlink.com 1.10,2013-07-23 04:27:00,
2013-07-22 21:42:00,64.2,56.0,29.91,NNW,348,0.0,-999.0,75,-99.99,,,0.00,weatherlink.com 1.10,2013-07-23 04:42:00,
2013-07-22 21:57:00,63.6,56.0,29.93,SSE,153,0.0,-999.0,76,-99.99,,,0.00,weatherlink.com 1.10,2013-07-23 04:57:00,
2013-07-22 22:12:00,63.1,56.0,29.93,ESE,103,0.0,-999.0,77,-99.99,,,0.00,weatherlink.com 1.10,2013-07-23 05:12:00,
2013-07-22 22:27:00,62.8,56.0,29.92,East,100,0.0,-999.0,77,-99.99,,,0.00,weatherlink.com 1.10,2013-07-23 05:27:00,
2013-07-22 22:42:00,62.8,56.0,29.92,NNE,28,1.0,-999.0,78,-99.99,,,0.00,weatherlink.com 1.10,2013-07-23 05:42:00,
2013-07-22 22:57:00,62.6,56.0,29.92,NE,55,1.0,-999.0,78,-99.99,,,0.00,weatherlink.com 1.10,2013-07-23 05:57:00,
2013-07-22 23:12:00,62.3,56.0,29.92,East,97,0.0,-999.0,79,-99.99,,,0.00,weatherlink.com 1.10,2013-07-23 06:12:00,
2013-07-22 23:27:00,62.1,56.0,29.90,East,97,0.0,-999.0,80,-99.99,,,0.00,weatherlink.com 1.10,2013-07-23 06:27:00,
2013-07-22 23:42:00,62.2,56.0,29.90,East,98,0.0,-999.0,80,-99.99,,,0.00,weatherlink.com 1.10,2013-07-23 06:42:00,
2013-07-22 23:57:00,62.3,56.0,29.91,WSW,239,0.0,-999.0,79,-99.99,,,0.00,weatherlink.com 1.10,2013-07-23 06:57:00,